New York Downtown Manhattan/w, NY

9:41 PM EST on November 14, 2019 (GMT -0500)
New York Downtown Manhattan/w

Weather History for KJRB - October, 2019

Change the Weather History Date:

Sunday, October 13, 2019

  Actual Average (KEWR) Record (KEWR)
Temperature  
Mean Temperature 62 °F -  
Max Temperature 71 °F 66 °F 89 °F (1954)
Min Temperature 55 °F 51 °F 34 °F (2012)
Degree Days  
Heating Degree Days 3    
Growing Degree Days 12 (Base 50)    
Moisture  
Dew Point 50 °F    
Average Humidity 67    
Maximum Humidity 81    
Minimum Humidity 40    
Precipitation  
Precipitation 0.00 in - - ()
Sea Level Pressure  
Sea Level Pressure 30.07 in    
Wind  
Wind Speed 4 mph ()    
Max Wind Speed 7 mph    
Max Gust Speed -    
Visibility 10.0 miles    
Events Rain    
Averages and records for this station are not official NWS values.
T = Trace of Precipitation, MM = Missing Value Source: Averaged Metar Reports

Daily Weather History Graph

Daily Weather History Graph

Search for Another Location

Airport or City:

Astronomy

Oct. 13, 2019 Rise Set
Actual Time 7:04 AM EDT 6:19 PM EDT
Civil Twilight 6:37 AM EDT 6:46 PM EDT
Nautical Twilight 6:05 AM EDT 7:18 PM EDT
Astronomical Twilight 5:33 AM EDT 7:49 PM EDT
Moon 6:40 PM EDT (10/13) 6:35 AM EDT (10/13)
Length of Visible Light 12h 09m
Length of Day
11h 14m
Full, 100% of the Moon is Illuminated
Oct 13
Full
Oct 13
Full
Oct 21
Last Quarter
Oct 27
New
Nov 4
First Quarter

Hourly Weather History & Observations

Time (EDT) Temp. Dew Point Humidity Pressure Visibility Wind Dir Wind Speed Gust Speed Precip Events Conditions
12:56 AM 61.0 °F 51.1 °F 70% 30.01 in 10.0 mi WSW 4.6 mph - N/A   Partly Cloudy
1:56 AM 61.0 °F 51.1 °F 70% 30.01 in 10.0 mi Calm Calm - N/A   Clear
2:56 AM 60.1 °F 48.9 °F 67% 30.02 in 10.0 mi WSW 6.9 mph - N/A   Clear
3:56 AM 57.9 °F 50.0 °F 75% 30.03 in 10.0 mi West 5.8 mph - N/A   Clear
4:56 AM 57.9 °F 48.9 °F 72% 30.05 in 10.0 mi West 6.9 mph - N/A   Clear
5:56 AM 57.0 °F 48.9 °F 74% 30.06 in 10.0 mi WNW 3.5 mph - N/A   Clear
6:56 AM 57.0 °F 50.0 °F 77% 30.08 in 10.0 mi West 3.5 mph - N/A   Clear
7:56 AM 55.9 °F 50.0 °F 80% 30.12 in 10.0 mi NE 6.9 mph - N/A   Clear
8:56 AM 57.9 °F 51.1 °F 78% 30.13 in 10.0 mi East 3.5 mph - N/A   Mostly Cloudy
9:08 AM 57.2 °F 50.0 °F 77% 30.13 in 10.0 mi Variable 3.5 mph - N/A   Scattered Clouds
9:56 AM 60.1 °F 50.0 °F 69% 30.14 in 10.0 mi Calm Calm - N/A   Scattered Clouds
10:56 AM 62.1 °F 48.9 °F 62% 30.13 in 10.0 mi Variable 4.6 mph - N/A   Clear
11:56 AM 63.0 °F 48.0 °F 58% 30.12 in 10.0 mi Variable 4.6 mph - N/A   Partly Cloudy
12:56 PM 64.0 °F 46.0 °F 52% 30.11 in 10.0 mi Calm Calm - N/A   Clear
1:56 PM 66.0 °F 43.0 °F 43% 30.09 in 10.0 mi WSW 4.6 mph - N/A   Clear
2:56 PM 69.1 °F 44.1 °F 40% 30.07 in 10.0 mi WSW 3.5 mph - N/A   Partly Cloudy
3:56 PM 69.1 °F 45.0 °F 42% 30.07 in 10.0 mi SW 5.8 mph - N/A   Scattered Clouds
4:56 PM 66.0 °F 48.9 °F 54% 30.06 in 10.0 mi SW 4.6 mph - N/A   Clear
5:56 PM 64.0 °F 48.9 °F 58% 30.05 in 10.0 mi SE 4.6 mph - N/A   Partly Cloudy
6:56 PM 62.1 °F 51.1 °F 67% 30.06 in 10.0 mi South 5.8 mph - N/A   Mostly Cloudy
7:56 PM 62.1 °F 53.1 °F 72% 30.06 in 10.0 mi SSW 6.9 mph - N/A   Overcast
8:56 PM 61.0 °F 53.1 °F 75% 30.06 in 10.0 mi SW 5.8 mph - N/A   Overcast
9:56 PM 62.1 °F 54.0 °F 75% 30.05 in 10.0 mi SSW 5.8 mph - 0.00 in Rain Light Rain
10:56 PM 61.0 °F 55.0 °F 81% 30.04 in 10.0 mi SW 4.6 mph - 0.00 in   Overcast
11:56 PM 61.0 °F 55.0 °F 81% 30.03 in 10.0 mi WSW 4.6 mph - N/A   Overcast